Location: Faicchio
(41.2833°N, 14.4833°E)
Time: 06:49:10
(UTC+00:00)

Cosmos 1634 Rocket - Pass Details

Date: 15 June 2025
Orbit: 958 x 992 km, 82.9° (Epoch: 16 July)

Event Time Altitude Azimuth Distance (km) Brightness Sun altitude
Rises 00:00:34 0° 346° (NNW) 3,695 8.0 -24.0°
Reaches altitude 10° 00:03:12 10° 340° (NNW) 2,738 7.1 -23.9°
Maximum altitude 00:09:04 44° 271° (W) 1,319 4.5 -23.6°
Enters shadow 00:10:19 39° 240° (WSW) 1,413 4.5 -23.5°
